OPS 0757

operational
NORAD ID: 3691 Int'l Des: 1969-013 Owner: SAMSO Country: US
MEOCIRCULAR

About OPS 0757

Description loading...

Live Position

Loading 3D Globe...

Upcoming Passes

Altitude History

Altitude vs Time

uPlot chart will show altitude changes over time

Two-Line Element Set

1 03691U 69013A 26062.50386676 -.00000299 00000-0 00000-0 0 9996
2 03691 2.5804 75.1971 0021616 181.1834 29.2163 1.00426571113040
Epoch: Mar 3, 2026 • Age: 26 hours

Current Status

Altitude 35782.3 km
Velocity 3.07 km/s
Sub-Earth Point 2.34°N, 56.96°W
Type other

Large Constellations

Loading constellations...